Location: Newark
(21.8258°S, 114.1586°E)
Time: 08:41:10
(UTC+00:00)

LightSail 2 - Visible Passes

Search period start: 09 December 2019 00:00
Search period end: 19 December 2019 00:00
Orbit: 696 x 730 km, 24.0° (Epoch: 08 December)

Date Brightness Start Highest point End Pass type
(mag) Time Alt. Az. Time Alt. Az. Time Alt. Az.
09 Dec 5.1 19:24:19 76° SSW 19:24:28 77° S 19:29:36 10° E visible
09 Dec 5.4 21:05:04 10° W 21:10:11 71° S 21:15:20 10° E visible
10 Dec 7.2 18:29:43 22° ESE 18:29:43 22° ESE 18:31:28 10° E visible
10 Dec 5.3 20:08:40 21° WSW 20:12:00 68° S 20:17:08 10° E visible
11 Dec 5.3 19:14:06 67° SSE 19:14:06 67° SSE 19:18:56 10° E visible
11 Dec 5.2 20:54:25 10° W 20:59:31 82° S 21:04:41 10° E visible
12 Dec 7.5 18:19:37 17° ESE 18:19:37 17° ESE 18:20:46 10° E visible
12 Dec 5.2 19:58:35 27° WSW 20:01:23 74° S 20:06:29 10° E visible
13 Dec 5.7 19:04:11 54° ESE 19:04:11 54° ESE 19:08:16 10° E visible
13 Dec 5.1 20:43:42 10° W 20:48:48 77° NNW 20:53:55 10° ENE visible
14 Dec 7.9 18:09:53 11° E 18:09:53 11° E 18:10:04 10° E visible
14 Dec 5.0 19:48:53 41° WSW 19:50:39 89° S 19:55:45 10° E visible
15 Dec 6.4 18:54:43 34° E 18:54:43 34° E 18:57:34 10° E visible
15 Dec 5.3 20:33:43 14° W 20:37:59 53° NNW 20:42:56 10° ENE visible
16 Dec 6.9 12:34:01 10° NNW 12:35:43 16° N 12:35:43 16° N visible
16 Dec 4.9 19:39:44 68° NNW 19:39:51 68° NNW 19:44:54 10° ENE visible
17 Dec 6.8 11:36:52 10° N 11:39:44 15° NNE 11:42:13 11° NE visible
17 Dec 7.2 13:20:03 10° NW 13:21:15 17° NW 13:21:15 17° NW visible
17 Dec 7.5 18:45:54 15° ENE 18:45:54 15° ENE 18:46:46 10° ENE visible
17 Dec 5.8 20:24:55 24° WNW 20:27:03 34° NNW 20:31:37 10° NE visible
18 Dec 5.8 12:22:11 10° NW 12:26:50 33° NNE 12:27:38 32° NE visible
18 Dec 6.4 19:31:13 27° NE 19:31:13 27° NE 19:33:46 10° NE visible
18 Dec 6.8 21:11:16 10° WNW 21:14:07 15° NNW 21:17:00 10° N visible
